| time (UTC) | temp F | wind direction | speed MPH | gust MPH | rain 1hr in | rain 24hr in | rain mn in | humidity % | barometer mb |
| 20260507184542 | 64 | 41 | 0.0 | 4.0 | 0.00 | 0.10 | 0.02 | 59 | 1009.1 |
| 20260507183031 | 62 | 130 | 2.0 | 6.0 | 0.00 | 0.10 | 0.02 | 58 | 1009.1 |
| 20260507181530 | 62 | 117 | 0.0 | 3.0 | 0.00 | 0.10 | 0.02 | 60 | 1009.3 |
| 20260507180030 | 62 | 60 | 1.0 | 4.0 | 0.00 | 0.10 | 0.02 | 61 | 1009.5 |
| 20260507174534 | 64 | 42 | 1.0 | 6.0 | 0.00 | 0.10 | 0.02 | 60 | 1009.8 |
| 20260507173041 | 65 | 107 | 1.0 | 6.0 | 0.00 | 0.10 | 0.02 | 55 | 1010.0 |
| 20260507171529 | 63 | 148 | 1.0 | 5.0 | 0.00 | 0.10 | 0.02 | 58 | 1010.0 |
| 20260507170027 | 64 | 121 | 1.0 | 3.0 | 0.00 | 0.10 | 0.02 | 56 | 1010.5 |
| 20260507164533 | 63 | 36 | 3.0 | 5.0 | 0.00 | 0.10 | 0.02 | 58 | 1010.7 |
| 20260507163025 | 63 | 36 | 2.0 | 5.0 | 0.00 | 0.10 | 0.02 | 59 | 1011.0 |
| 20260507161521 | 61 | 242 | 3.0 | 7.0 | 0.00 | 0.10 | 0.02 | 58 | 1011.1 |
| 20260507160024 | 59 | 65 | 1.0 | 4.0 | 0.00 | 0.10 | 0.02 | 61 | 1011.3 |
| 20260507154515 | 58 | 225 | 2.0 | 9.0 | 0.00 | 0.10 | 0.02 | 61 | 1011.4 |
| 20260507153013 | 57 | 243 | 4.0 | 8.0 | 0.00 | 0.10 | 0.02 | 63 | 1011.4 |
| 20260507151513 | 56 | 114 | 1.0 | 6.0 | 0.00 | 0.10 | 0.02 | 65 | 1011.4 |
| 20260507150012 | 56 | 134 | 2.0 | 3.0 | 0.00 | 0.10 | 0.02 | 66 | 1011.8 |
| 20260507144511 | 55 | 149 | 0.0 | 4.0 | 0.00 | 0.10 | 0.02 | 67 | 1012.1 |
| 20260507143019 | 54 | 54 | 0.0 | 3.0 | 0.00 | 0.10 | 0.02 | 68 | 1012.5 |
| 20260507141516 | 53 | 233 | 0.0 | 3.0 | 0.00 | 0.10 | 0.02 | 67 | 1012.5 |
| 20260507140010 | 53 | 239 | 1.0 | 5.0 | 0.00 | 0.10 | 0.02 | 73 | 1012.5 |
| 20260507134508 | 53 | 161 | 0.0 | 4.0 | 0.00 | 0.10 | 0.02 | 75 | 1012.5 |
| 20260507133007 | 52 | 219 | 0.0 | 3.0 | 0.00 | 0.10 | 0.02 | 73 | 1012.7 |
| 20260507131515 | 52 | 121 | 0.0 | 3.0 | 0.00 | 0.10 | 0.02 | 77 | 1012.8 |
| 20260507130005 | 53 | 253 | 3.0 | 9.0 | 0.00 | 0.10 | 0.02 | 78 | 1012.9 |
| 20260507124508 | 53 | 246 | 1.0 | 6.0 | 0.00 | 0.10 | 0.02 | 78 | 1012.5 |
| 20260507123003 | 53 | 279 | 0.0 | 5.0 | 0.00 | 0.10 | 0.02 | 79 | 1012.4 |
| 20260507121603 | 53 | 267 | 0.0 | 3.0 | 0.00 | 0.10 | 0.02 | 83 | 1012.4 |
| 20260507120100 | 53 | 243 | 1.0 | 3.0 | 0.00 | 0.10 | 0.02 | 84 | 1012.4 |
| 20260507114609 | 53 | 249 | 1.0 | 8.0 | 0.00 | 0.11 | 0.02 | 82 | 1012.2 |
| 20260507113126 | 52 | 281 | 0.0 | 4.0 | 0.00 | 0.11 | 0.02 | 85 | 1012.1 |
| 20260507111557 | 52 | 207 | 0.0 | 2.0 | 0.00 | 0.11 | 0.02 | 90 | 1011.8 |
| 20260507110052 | 52 | 213 | 0.0 | 2.0 | 0.00 | 0.11 | 0.02 | 91 | 1011.5 |
| 20260507104551 | 52 | 96 | 0.0 | 2.0 | 0.00 | 0.11 | 0.02 | 91 | 1011.7 |
| 20260507103054 | 52 | 86 | 0.0 | 0.0 | 0.00 | 0.11 | 0.02 | 92 | 1011.5 |
| 20260507101549 | 52 | 87 | 0.0 | 3.0 | 0.00 | 0.11 | 0.02 | 93 | 1011.4 |
| 20260507100047 | 52 | 31 | 0.0 | 3.0 | 0.00 | 0.11 | 0.02 | 93 | 1011.6 |
| 20260507094546 | 52 | 20 | 0.0 | 0.0 | 0.00 | 0.11 | 0.02 | 92 | 1011.2 |
| 20260507093048 | 52 | 20 | 0.0 | 2.0 | 0.00 | 0.11 | 0.02 | 92 | 1011.1 |
| 20260507091544 | 52 | 210 | 0.0 | 3.0 | 0.00 | 0.11 | 0.02 | 92 | 1011.1 |
| 20260507090041 | 52 | 149 | 0.0 | 0.0 | 0.00 | 0.11 | 0.02 | 93 | 1010.7 |
| 20260507084545 | 52 | 279 | 0.0 | 0.0 | 0.00 | 0.11 | 0.02 | 94 | 1010.6 |
| 20260507083039 | 52 | 279 | 0.0 | 2.0 | 0.00 | 0.11 | 0.02 | 94 | 1010.8 |
| 20260507081541 | 52 | 237 | 0.0 | 1.0 | 0.00 | 0.11 | 0.02 | 93 | 1010.8 |
| 20260507080035 | 52 | 140 | 0.0 | 2.0 | 0.00 | 0.11 | 0.02 | 92 | 1010.7 |
| 20260507074536 | 53 | 209 | 0.0 | 2.0 | 0.00 | 0.11 | 0.02 | 93 | 1010.6 |
| 20260507073034 | 53 | 136 | 0.0 | 2.0 | 0.00 | 0.11 | 0.02 | 94 | 1010.0 |
| 20260507071531 | 53 | 116 | 0.0 | 3.0 | 0.00 | 0.11 | 0.02 | 93 | 1010.3 |
| 20260507070031 | 53 | 104 | 0.0 | 2.0 | 0.00 | 0.11 | 0.02 | 93 | 1010.0 |
| 20260507064528 | 54 | 116 | 0.0 | 4.0 | 0.00 | 0.11 | 0.02 | 93 | 1010.1 |
| 20260507063028 | 54 | 192 | 0.0 | 7.0 | 0.00 | 0.11 | 0.02 | 93 | 1009.9 |
| 20260507061525 | 55 | 235 | 1.0 | 4.0 | 0.01 | 0.11 | 0.02 | 93 | 1010.2 |
| 20260507060027 | 55 | 228 | 0.0 | 3.0 | 0.01 | 0.11 | 0.02 | 94 | 1010.4 |
| 20260507054520 | 55 | 109 | 0.0 | 3.0 | 0.01 | 0.11 | 0.02 | 95 | 1010.4 |
| 20260507053019 | 56 | 123 | 1.0 | 4.0 | 0.01 | 0.11 | 0.02 | 94 | 1010.2 |
| 20260507051517 | 56 | 60 | 1.0 | 4.0 | 0.00 | 0.10 | 0.01 | 95 | 1010.2 |
| 20260507050024 | 56 | 232 | 0.0 | 2.0 | 0.01 | 0.10 | 0.01 | 96 | 1010.1 |
| 20260507044515 | 56 | 5 | 1.0 | 4.0 | 0.01 | 0.10 | 0.01 | 95 | 1009.7 |
| 20260507043020 | 57 | 213 | 0.0 | 1.0 | 0.01 | 0.10 | 0.01 | 95 | 1010.0 |
| 20260507041509 | 58 | 104 | 0.0 | 2.0 | 0.02 | 0.10 | 0.01 | 94 | 1009.7 |
| 20260507040006 | 58 | 67 | 0.0 | 3.0 | 0.02 | 0.09 | 0.00 | 95 | 1010.0 |
| 20260507034508 | 59 | 260 | 0.0 | 1.0 | 0.02 | 0.09 | 0.09 | 94 | 1010.1 |
| 20260507033005 | 59 | 248 | 0.0 | 1.0 | 0.02 | 0.09 | 0.09 | 94 | 1009.9 |
| 20260507031504 | 60 | 248 | 0.0 | 1.0 | 0.02 | 0.08 | 0.08 | 95 | 1009.5 |
| 20260507030007 | 61 | 236 | 0.0 | 2.0 | 0.01 | 0.07 | 0.07 | 96 | 1009.7 |
| 20260507024508 | 61 | 243 | 1.0 | 4.0 | 0.01 | 0.07 | 0.07 | 96 | 1009.8 |
| 20260507023007 | 62 | 38 | 0.0 | 4.0 | 0.01 | 0.07 | 0.07 | 96 | 1009.3 |
| 20260507021502 | 62 | 231 | 2.0 | 5.0 | 0.00 | 0.06 | 0.06 | 97 | 1009.6 |
| 20260507020002 | 62 | 138 | 0.0 | 0.0 | 0.00 | 0.06 | 0.06 | 97 | 1009.4 |
| 20260507014502 | 62 | 138 | 0.0 | 1.0 | 0.00 | 0.06 | 0.06 | 97 | 1009.0 |
| 20260507013001 | 63 | 138 | 0.0 | 0.0 | 0.00 | 0.06 | 0.06 | 97 | 1009.0 |
| 20260507011602 | 63 | 138 | 0.0 | 1.0 | 0.00 | 0.06 | 0.06 | 96 | 1009.2 |
| 20260507010100 | 63 | 137 | 0.0 | 2.0 | 0.00 | 0.06 | 0.06 | 97 | 1009.3 |
| 20260507004603 | 64 | 113 | 0.0 | 4.0 | 0.00 | 0.06 | 0.06 | 97 | 1009.3 |
| 20260507003115 | 64 | 267 | 0.0 | 4.0 | 0.02 | 0.06 | 0.06 | 96 | 1009.0 |
| 20260507001615 | 64 | 275 | 0.0 | 1.0 | 0.02 | 0.06 | 0.06 | 96 | 1008.9 |
| 20260507000057 | 64 | 296 | 0.0 | 2.0 | 0.03 | 0.06 | 0.06 | 96 | 1008.7 |
| 20260506234557 | 64 | 219 | 1.0 | 5.0 | 0.04 | 0.06 | 0.06 | 96 | 1008.5 |
| 20260506233058 | 65 | 277 | 2.0 | 5.0 | 0.03 | 0.04 | 0.04 | 95 | 1008.6 |
| 20260506231604 | 66 | 236 | 0.0 | 1.0 | 0.03 | 0.04 | 0.04 | 93 | 1008.1 |
| 20260506230109 | 66 | 236 | 0.0 | 2.0 | 0.02 | 0.03 | 0.03 | 92 | 1008.3 |
| 20260506224554 | 67 | 236 | 0.0 | 1.0 | 0.01 | 0.02 | 0.02 | 89 | 1008.2 |
| 20260506223057 | 69 | 236 | 0.0 | 2.0 | 0.00 | 0.01 | 0.01 | 86 | 1008.0 |
| 20260506221606 | 70 | 236 | 0.0 | 3.0 | 0.00 | 0.01 | 0.01 | 82 | 1007.8 |
| 20260506220054 | 70 | 5 | 0.0 | 2.0 | 0.00 | 0.01 | 0.01 | 82 | 1007.8 |
| 20260506214555 | 70 | 123 | 1.0 | 3.0 | 0.00 | 0.01 | 0.01 | 80 | 1007.8 |
| 20260506213051 | 69 | 45 | 0.0 | 2.0 | 0.00 | 0.01 | 0.01 | 81 | 1007.8 |
| 20260506211551 | 70 | 140 | 1.0 | 3.0 | 0.00 | 0.01 | 0.01 | 80 | 1007.8 |
| 20260506210056 | 70 | 117 | 0.0 | 3.0 | 0.00 | 0.01 | 0.01 | 79 | 1007.6 |
| 20260506204553 | 70 | 63 | 0.0 | 2.0 | 0.00 | 0.01 | 0.01 | 81 | 1007.3 |
| 20260506203056 | 69 | 105 | 1.0 | 3.0 | 0.00 | 0.01 | 0.01 | 81 | 1007.5 |
| 20260506201548 | 69 | 51 | 1.0 | 3.0 | 0.00 | 0.01 | 0.01 | 81 | 1007.2 |
| 20260506200053 | 69 | 14 | 0.0 | 2.0 | 0.00 | 0.01 | 0.01 | 83 | 1007.4 |
| 20260506194546 | 68 | 139 | 0.0 | 3.0 | 0.00 | 0.01 | 0.01 | 83 | 1007.5 |
| 20260506193049 | 68 | 58 | 1.0 | 3.0 | 0.00 | 0.01 | 0.01 | 82 | 1007.6 |
| 20260506191544 | 69 | 180 | 0.0 | 5.0 | 0.00 | 0.01 | 0.01 | 80 | 1007.4 |
| 20260506190045 | 69 | 329 | 0.0 | 5.0 | 0.00 | 0.01 | 0.01 | 81 | 1007.8 |